Change the Weather History Date:

Thursday, December 8, 2011

  Actual Average Record
Temperature  
Mean Temperature 22 °F -  
Max Temperature 30 °F 33 °F 51 °F (1999)
Min Temperature 15 °F 21 °F -5 °F (2005)
Degree Days  
Heating Degree Days 42    
Moisture  
Dew Point 14 °F    
Average Humidity 69    
Maximum Humidity 93    
Minimum Humidity 46    
Precipitation  
Precipitation 0.00 in - - ()
Sea Level Pressure  
Sea Level Pressure 30.16 in    
Wind  
Wind Speed 8 mph (West)    
Max Wind Speed 20 mph    
Max Gust Speed 28 mph    
Visibility 10 miles    
Events      
Averages and records for this station are not official NWS values.
T = Trace of Precipitation, MM = Missing Value Source: NWS Daily Summary

Daily Weather History Graph

Daily Weather History Graph

Search for Another Location

Airport or City:

Trip Planner

Search our weather history database for the weather conditions in past years. The results will help you decide how hot, cold, wet, or windy it might be!

Date:

Astronomy

Dec. 08, 2011 Rise Set
Actual Time 7:22 AM CST 4:23 PM CST
Civil Twilight 6:49 AM CST 4:55 PM CST
Nautical Twilight 6:13 AM CST 5:32 PM CST
Astronomical Twilight 5:38 AM CST 6:07 PM CST
Moon 3:02 PM CST (12/8) 5:33 AM CST (12/8)
Length of Visible Light 10h 06m
Length of Day
9h 00m
Waxing Gibbous, 97% of the Moon is Illuminated
Dec 8
Waxing Gibbous
Dec 10
Full
Dec 17
Last Quarter
Dec 24
New
Jan 1
First Quarter

Hourly Weather History & Observations

Time (CST) Temp. Windchill Dew Point Humidity Pressure Visibility Wind Dir Wind Speed Gust Speed Precip Events Conditions
12:55 AM 22.5 °F - 20.8 °F 93% 30.09 in 10.0 mi Calm Calm - N/A   Mostly Cloudy
1:55 AM 24.3 °F 16.3 °F 21.7 °F 90% 30.09 in 10.0 mi West 6.9 mph - N/A   Overcast
2:55 AM 25.7 °F 15.7 °F 21.7 °F 85% 30.11 in 10.0 mi West 10.4 mph - N/A   Scattered Clouds
2:59 AM 26.6 °F 16.8 °F 21.2 °F 80% 30.11 in 10.0 mi West 10.4 mph - N/A   Partly Cloudy
3:12 AM 26.6 °F 16.2 °F 21.2 °F 80% 30.11 in 10.0 mi West 11.5 mph - N/A   Mostly Cloudy
3:55 AM 25.2 °F 16.5 °F 21.0 °F 84% 30.11 in 10.0 mi West 8.1 mph - 0.00 in   Overcast
4:55 AM 23.4 °F 13.5 °F 19.8 °F 86% 30.12 in 10.0 mi West 9.2 mph - N/A   Mostly Cloudy
5:55 AM 21.7 °F 10.8 °F 16.9 °F 82% 30.15 in 10.0 mi West 10.4 mph - N/A   Clear
6:55 AM 17.6 °F 10.7 °F 15.8 °F 93% 30.17 in 10.0 mi WSW 4.6 mph - N/A   Partly Cloudy
7:55 AM 21.2 °F 14.9 °F 15.8 °F 80% 30.18 in 10.0 mi SW 4.6 mph - N/A   Partly Cloudy
8:55 AM 24.8 °F 17.9 °F 17.6 °F 74% 30.18 in 10.0 mi SW 5.8 mph - N/A   Partly Cloudy
9:55 AM 28.4 °F 18.0 °F 15.8 °F 59% 30.19 in 10.0 mi West 12.7 mph - N/A   Scattered Clouds
10:55 AM 28.4 °F 16.2 °F 15.8 °F 59% 30.18 in 10.0 mi West 17.3 mph 24.2 mph N/A   Scattered Clouds
11:55 AM 30.2 °F 19.3 °F 15.8 °F 55% 30.16 in 10.0 mi West 15.0 mph 25.3 mph N/A   Scattered Clouds
12:55 PM 28.4 °F 15.4 °F 10.4 °F 47% 30.15 in 10.0 mi West 19.6 mph 27.6 mph N/A   Mostly Cloudy
1:55 PM 26.6 °F 15.2 °F 14.0 °F 59% 30.16 in 10.0 mi West 13.8 mph 25.3 mph N/A   Mostly Cloudy
2:55 PM 26.6 °F 13.8 °F 14.0 °F 59% 30.14 in 10.0 mi West 17.3 mph 21.9 mph N/A   Mostly Cloudy
3:55 PM 24.8 °F 12.9 °F 10.4 °F 54% 30.16 in 10.0 mi West 13.8 mph - N/A   Mostly Cloudy
4:55 PM 21.2 °F 9.5 °F 3.2 °F 46% 30.16 in 10.0 mi West 11.5 mph - N/A   Mostly Cloudy
5:55 PM 19.4 °F 8.6 °F 5.0 °F 54% 30.18 in 10.0 mi West 9.2 mph - N/A   Mostly Cloudy
6:55 PM 17.6 °F 7.3 °F 6.8 °F 63% 30.20 in 10.0 mi West 8.1 mph - N/A   Mostly Cloudy
7:55 PM 19.4 °F 8.6 °F 6.8 °F 58% 30.21 in 10.0 mi West 9.2 mph - N/A   Mostly Cloudy
8:55 PM 18.1 °F 7.1 °F 7.3 °F 63% 30.20 in 10.0 mi West 9.2 mph - N/A   Clear
9:55 PM 15.8 °F 5.1 °F 6.8 °F 68% 30.20 in 10.0 mi West 8.1 mph - N/A   Mostly Cloudy
10:55 PM 17.6 °F 7.3 °F 8.6 °F 68% 30.21 in 10.0 mi West 8.1 mph - N/A   Mostly Cloudy
11:55 PM 17.6 °F 5.7 °F 6.8 °F 63% 30.20 in 10.0 mi West 10.4 mph - N/A   Scattered Clouds